Simultaneous Nadir Overpasses (SNOs) Predictions

Prediction of SNOs between GOES-15 and METOP-A Satellite Orbit:

Table of predicted SNOs for the next 14.0 days since TLE Epoch: 2/22/2014
Index Date Time (GOES-15) GOES-15 Lat,Lon METOP-A Lat,Lon Distance(km) Time Diff (sec)
1 02/22/2014 18:38:14 0.06,-135.24 0.61,-137.58 267.28 80
2 02/23/2014 18:20:15 0.06,-135.21 -0.52,-132.59 299.00 80
3 02/25/2014 06:39:15 -0.06,-135.13 -0.50,-137.19 233.72 80
4 02/26/2014 06:15:54 -0.06,-135.10 0.57,-132.18 332.13 80
5 02/27/2014 18:34:46 0.06,-135.10 0.41,-136.75 188.34 80
6 02/28/2014 18:16:45 0.06,-135.07 -0.66,-131.75 377.51 80
7 03/02/2014 06:35:45 -0.06,-134.98 -0.35,-136.35 155.68 80
8 03/03/2014 06:12:25 -0.06,-134.95 0.73,-131.35 409.84 80
9 03/04/2014 18:31:15
